Flag for USA

Past Weather in Miami, Florida, USA — Yesterday and Last 2 Weeks

Now
93 °F

Scattered clouds.


Feels Like: 102 °F
Forecast: 89 / 80 °F
Wind: 10 mph from Northeast

Location: Miami International Airport

Current Time: Jul 16, 2020 at 1:54:02 pm

Latest Report: Jul 16, 2020 at 12:53 pm


Visibility: 10 mi

Pressure: 30.07 "Hg

Humidity: 52%

Dew Point: 73 °F

Location of MiamiLocation

Past Weather in Miami — Graph

°F

Miami Temperature Yesterday

Maximum temperature yesterday: 93 °F (at 11:53 am)
Minimum temperature yesterday: 80 °F (at 11:53 pm)
Average temperature yesterday: 86 °F

High & Low Weather Summary for the Past Weeks

 TemperatureHumidityPressure
High98 °F (Jul 9, 3:53 pm)90% (Jul 1, 8:58 pm)30.10 "Hg (Jul 1, 8:58 pm)
Low77 °F (Jul 6, 3:30 pm)34% (Jul 9, 3:53 pm)29.90 "Hg (Jul 3, 6:53 pm)
Average86 °F70%30.00 "Hg
* Reported Jul 1 11:53 am — Jul 16 11:53 am, Miami. Weather by CustomWeather, © 2020

Note: Actual official high and low records may vary slightly from our data, if they occured in-between our weather recording intervals... More about our weather records

Miami Weather History for the Previous 24 Hours

Scroll right to see more
 ConditionsComfort  
Time TempWeatherWind HumidityBarometerVisibility
11:53 am
Thu, Jul 16
91 °FScattered clouds.13 mph60%30.08 "Hg10 mi
10:53 am88 °FBroken clouds.3 mph61%30.08 "Hg10 mi
9:53 am83 °FBroken clouds.5 mph74%30.08 "Hg10 mi
8:53 am84 °FLight rain. Broken clouds.No wind72%30.08 "Hg10 mi
7:53 am82 °FBroken clouds.5 mph77%30.06 "Hg10 mi
6:53 am81 °FPartly sunny.3 mph79%30.04 "Hg10 mi
5:53 am81 °FPassing clouds.No wind79%30.03 "Hg10 mi
4:53 am80 °FPassing clouds.No wind81%30.01 "Hg10 mi
3:53 am80 °FPassing clouds.6 mph81%30.00 "Hg10 mi
2:53 am81 °FPassing clouds.6 mph79%30.02 "Hg10 mi
1:53 am81 °FPartly cloudy.5 mph79%30.03 "Hg10 mi
12:53 am81 °FPartly cloudy.6 mph82%30.07 "Hg10 mi
12:31 am80 °FPassing clouds.7 mph85%30.08 "Hg10 mi
12:15 am80 °FMostly cloudy.6 mph87%30.08 "Hg10 mi
11:53 pm
Wed, Jul 15
80 °FPassing clouds.6 mph87%30.08 "Hg10 mi
10:53 pm82 °FPassing clouds.No wind74%30.06 "Hg10 mi
9:53 pm81 °FMostly cloudy.No wind74%30.05 "Hg10 mi
8:53 pm81 °FOvercast.6 mph74%30.06 "Hg10 mi
7:53 pm82 °FOvercast.8 mph70%30.06 "Hg10 mi
6:53 pm85 °FOvercast.5 mph70%30.05 "Hg10 mi
6:28 pm85 °FMore clouds than sun.3 mph72%30.05 "Hg10 mi
5:53 pm83 °FThundershowers. More clouds than sun.No wind77%30.03 "Hg10 mi
5:38 pm83 °FMore clouds than sun.7 mph72%30.04 "Hg10 mi
4:53 pm89 °FThunderstorms. Broken clouds.6 mph61%30.03 "Hg10 mi
4:06 pm90 °FThundershowers. Broken clouds.12 mph63%30.01 "Hg10 mi
3:37 pm89 °FThundershowers. Broken clouds.9 mph65%30.02 "Hg10 mi
2:53 pm90 °FPartly sunny.12 mph59%30.03 "Hg10 mi
2:35 pm91 °FBroken clouds.7 mph60%30.03 "Hg10 mi
2:02 pm92 °FThundershowers. Broken clouds.9 mph58%30.05 "Hg10 mi
1:05 pm90 °FThundershowers. Broken clouds.8 mph63%30.06 "Hg10 mi
Weather by CustomWeather, © 2020

See weather overview